Location: Sungai Kamana Besar
(2.6333°N, 113.4333°E)
Time: 05:21:42
(UTC+00:00)

Hubble Space Telescope - Pass Details

Date: 29 May 2022
Orbit: 532 x 536 km, 28.5° (Epoch: 26 June)

Event Time Altitude Azimuth Distance (km) Brightness Sun altitude
Exits shadow 20:24:38 34° 11° (N) 879 2.1 -26.4°
Drops below altitude 10° 20:27:27 10° 43° (NE) 1,773 4.3 -25.7°
Sets 20:29:47 0° 50° (NE) 2,661 5.6 -25.2°
